• In Deutschland
  • Länderverzeichnis
  • Für 7 Tage
  • Wassertemperatur
  • Satellitenkarten
  • Wetterkarte
  • Widgets
  • user-avatar
    Anmelden

    Stündliche Wetter Kalat

    Heute, 25 Februar, Sonntag

    Zeit Temperatur Niederschläge Wind Luftdruck Luftfeuchtigkeit
    00:00 -13°C° 0 mm 2 m/S 469 mmHg 85%
    01:00 -13°C° 0 mm 2 m/S 469 mmHg 84%
    02:00 -14°C° 0 mm 2 m/S 469 mmHg 82%
    03:00 -14°C° 0 mm 2 m/S 468 mmHg 81%
    04:00 -15°C° 0 mm 2 m/S 468 mmHg 80%
    05:00 -15°C° 0 mm 2 m/S 468 mmHg 80%
    06:00 -16°C° 0 mm 3 m/S 468 mmHg 77%
    07:00 -15°C° 0 mm 3 m/S 469 mmHg 74%
    08:00 -14°C° 0 mm 3 m/S 470 mmHg 71%
    09:00 -12°C° 0 mm 3 m/S 472 mmHg 67%
    10:00 -7°C° 0 mm 2 m/S 473 mmHg 64%
    11:00 -5°C° 0 mm 2 m/S 475 mmHg 60%
    12:00 -4°C° 0 mm 2 m/S 475 mmHg 63%
    13:00 -4°C° 0 mm 3 m/S 476 mmHg 66%
    14:00 -4°C° 0 mm 3 m/S 476 mmHg 68%
    15:00 -4°C° 0,1 mm 3 m/S 475 mmHg 72%
    16:00 -5°C° 0,1 mm 3 m/S 475 mmHg 75%
    17:00 -6°C° 0,1 mm 3 m/S 474 mmHg 79%
    18:00 -7°C° 0,1 mm 3 m/S 473 mmHg 80%
    19:00 -7°C° 0,1 mm 3 m/S 473 mmHg 82%
    20:00 -8°C° 0,1 mm 3 m/S 472 mmHg 83%
    21:00 -8°C° 0,5 mm 3 m/S 472 mmHg 85%
    22:00 -8°C° 0,5 mm 3 m/S 472 mmHg 86%
    23:00 -9°C° 0,5 mm 3 m/S 472 mmHg 88%

    Morgen, 26 Februar, Montag

    Zeit Temperatur Niederschläge Wind Luftdruck Luftfeuchtigkeit
    00:00 -9°C° 0,8 mm 4 m/S 472 mmHg 88%
    01:00 -9°C° 0,8 mm 4 m/S 472 mmHg 88%
    02:00 -9°C° 0,8 mm 4 m/S 472 mmHg 88%
    03:00 -9°C° 0,2 mm 4 m/S 472 mmHg 87%
    04:00 -9°C° 0,2 mm 4 m/S 472 mmHg 85%
    05:00 -9°C° 0,2 mm 4 m/S 472 mmHg 83%
    06:00 -9°C° 0,1 mm 4 m/S 472 mmHg 84%
    07:00 -8°C° 0,1 mm 4 m/S 473 mmHg 84%
    08:00 -8°C° 0,1 mm 4 m/S 473 mmHg 84%
    09:00 -7°C° 0,1 mm 4 m/S 474 mmHg 84%
    10:00 -4°C° 0,1 mm 4 m/S 475 mmHg 85%
    11:00 -3°C° 0,1 mm 4 m/S 476 mmHg 85%
    12:00 -2°C° 0,1 mm 4 m/S 476 mmHg 86%
    13:00 -2°C° 0,1 mm 4 m/S 475 mmHg 86%
    14:00 -2°C° 0,1 mm 4 m/S 475 mmHg 87%
    15:00 -2°C° 0,3 mm 4 m/S 475 mmHg 86%
    16:00 -3°C° 0,3 mm 4 m/S 474 mmHg 85%
    17:00 -3°C° 0,3 mm 4 m/S 474 mmHg 83%
    18:00 -4°C° 0,3 mm 4 m/S 474 mmHg 84%
    19:00 -5°C° 0,3 mm 4 m/S 473 mmHg 85%
    20:00 -7°C° 0,3 mm 4 m/S 473 mmHg 85%
    21:00 -6°C° 0,3 mm 3 m/S 473 mmHg 86%
    22:00 -6°C° 0,3 mm 3 m/S 473 mmHg 86%
    23:00 -7°C° 0,3 mm 3 m/S 473 mmHg 86%

    übermorgen, 27 Februar, Dienstag

    Zeit Temperatur Niederschläge Wind Luftdruck Luftfeuchtigkeit
    00:00 -7°C° 0,3 mm 3 m/S 473 mmHg 86%
    01:00 -6°C° 0,3 mm 2 m/S 473 mmHg 87%
    02:00 -7°C° 0,3 mm 2 m/S 473 mmHg 87%
    03:00 -7°C° 0,2 mm 2 m/S 472 mmHg 88%
    04:00 -8°C° 0,2 mm 2 m/S 472 mmHg 88%
    05:00 -9°C° 0,2 mm 2 m/S 471 mmHg 89%
    06:00 -9°C° 0,1 mm 2 m/S 471 mmHg 87%
    07:00 -9°C° 0,1 mm 2 m/S 471 mmHg 85%
    08:00 -8°C° 0,1 mm 1 m/S 472 mmHg 83%
    09:00 -7°C° 0 mm 2 m/S 473 mmHg 81%
    10:00 -5°C° 0 mm 2 m/S 474 mmHg 78%
    11:00 -4°C° 0 mm 2 m/S 475 mmHg 76%
    12:00 -3°C° 0,1 mm 2 m/S 475 mmHg 78%
    13:00 -3°C° 0,1 mm 2 m/S 475 mmHg 79%
    14:00 -4°C° 0,1 mm 3 m/S 475 mmHg 80%
    15:00 -4°C° 0,2 mm 3 m/S 475 mmHg 81%
    16:00 -5°C° 0,2 mm 3 m/S 474 mmHg 82%
    17:00 -4°C° 0,2 mm 2 m/S 474 mmHg 83%
    18:00 -5°C° 0,1 mm 2 m/S 473 mmHg 84%
    19:00 -7°C° 0,1 mm 2 m/S 473 mmHg 85%
    20:00 -8°C° 0,1 mm 2 m/S 472 mmHg 87%
    21:00 -8°C° 0,1 mm 2 m/S 472 mmHg 86%
    22:00 -8°C° 0,1 mm 2 m/S 472 mmHg 85%
    23:00 -9°C° 0,1 mm 2 m/S 472 mmHg 84%

    28 Februar, Mittwoch

    Zeit Temperatur Niederschläge Wind Luftdruck Luftfeuchtigkeit
    00:00 -9°C° 0 mm 2 m/S 472 mmHg 83%
    01:00 -9°C° 0 mm 2 m/S 471 mmHg 83%
    02:00 -9°C° 0 mm 2 m/S 471 mmHg 82%
    03:00 -10°C° 0 mm 2 m/S 471 mmHg 82%
    04:00 -10°C° 0 mm 2 m/S 470 mmHg 81%
    05:00 -12°C° 0 mm 2 m/S 470 mmHg 81%
    06:00 -10°C° 0 mm 2 m/S 470 mmHg 79%
    07:00 -10°C° 0 mm 2 m/S 471 mmHg 77%
    08:00 -10°C° 0 mm 2 m/S 471 mmHg 76%
    09:00 -8°C° 0 mm 2 m/S 472 mmHg 73%
    10:00 -6°C° 0 mm 2 m/S 474 mmHg 69%
    11:00 -4°C° 0 mm 2 m/S 475 mmHg 66%
    12:00 -3°C° 0 mm 2 m/S 475 mmHg 66%
    13:00 -3°C° 0 mm 2 m/S 475 mmHg 67%
    14:00 -2°C° 0 mm 3 m/S 475 mmHg 67%
    15:00 -3°C° 0 mm 2 m/S 474 mmHg 69%
    16:00 -4°C° 0 mm 2 m/S 474 mmHg 71%
    17:00 -4°C° 0 mm 2 m/S 473 mmHg 74%
    18:00 -5°C° 0 mm 2 m/S 472 mmHg 75%
    19:00 -7°C° 0 mm 2 m/S 472 mmHg 77%
    20:00 -9°C° 0 mm 3 m/S 471 mmHg 78%
    21:00 -9°C° 0,1 mm 3 m/S 471 mmHg 79%
    22:00 -9°C° 0,1 mm 3 m/S 471 mmHg 80%
    23:00 -9°C° 0,1 mm 3 m/S 472 mmHg 81%

    1 März, Donnerstag

    Zeit Temperatur Niederschläge Wind Luftdruck Luftfeuchtigkeit
    00:00 -9°C° 0,3 mm 3 m/S 471 mmHg 83%
    01:00 -9°C° 0,3 mm 3 m/S 471 mmHg 84%
    02:00 -9°C° 0,3 mm 3 m/S 471 mmHg 85%
    03:00 -9°C° 0,1 mm 3 m/S 471 mmHg 84%
    04:00 -9°C° 0,1 mm 3 m/S 470 mmHg 84%
    05:00 -10°C° 0,1 mm 3 m/S 470 mmHg 83%
    06:00 -9°C° 0 mm 3 m/S 470 mmHg 82%
    07:00 -9°C° 0 mm 3 m/S 471 mmHg 81%
    08:00 -9°C° 0 mm 3 m/S 471 mmHg 81%
    09:00 -7°C° 0 mm 3 m/S 472 mmHg 79%
    10:00 -6°C° 0 mm 3 m/S 473 mmHg 78%
    11:00 -4°C° 0 mm 3 m/S 474 mmHg 77%
    12:00 -4°C° 0,2 mm 3 m/S 474 mmHg 78%
    13:00 -4°C° 0,2 mm 3 m/S 473 mmHg 78%
    14:00 -4°C° 0,2 mm 3 m/S 473 mmHg 79%
    15:00 -4°C° 0,6 mm 3 m/S 473 mmHg 82%
    16:00 -5°C° 0,6 mm 3 m/S 472 mmHg 85%
    17:00 -5°C° 0,6 mm 2 m/S 472 mmHg 87%
    18:00 -5°C° 0,4 mm 2 m/S 472 mmHg 88%
    19:00 -6°C° 0,4 mm 2 m/S 471 mmHg 89%
    20:00 -6°C° 0,4 mm 2 m/S 471 mmHg 90%
    21:00 -7°C° 0,3 mm 2 m/S 471 mmHg 89%
    22:00 -7°C° 0,3 mm 2 m/S 471 mmHg 89%
    23:00 -7°C° 0,3 mm 2 m/S 471 mmHg 89%

    2 März, Freitag

    Zeit Temperatur Niederschläge Wind Luftdruck Luftfeuchtigkeit
    00:00 -7°C° 0,1 mm 2 m/S 470 mmHg 88%
    01:00 -8°C° 0,1 mm 2 m/S 470 mmHg 88%
    02:00 -8°C° 0,1 mm 2 m/S 470 mmHg 88%
    03:00 -8°C° 0,2 mm 2 m/S 470 mmHg 88%
    04:00 -7°C° 0,2 mm 1 m/S 470 mmHg 89%
    05:00 -7°C° 0,2 mm 1 m/S 469 mmHg 89%
    06:00 -7°C° 0,1 mm 1 m/S 470 mmHg 88%
    07:00 -7°C° 0,1 mm 1 m/S 470 mmHg 87%
    08:00 -7°C° 0,1 mm 1 m/S 470 mmHg 85%
    09:00 -7°C° 0,1 mm 2 m/S 471 mmHg 83%
    10:00 -6°C° 0,1 mm 2 m/S 472 mmHg 81%
    11:00 -5°C° 0,1 mm 3 m/S 473 mmHg 80%
    12:00 -5°C° 0,4 mm 3 m/S 473 mmHg 81%
    13:00 -5°C° 0,4 mm 3 m/S 472 mmHg 82%
    14:00 -5°C° 0,4 mm 3 m/S 472 mmHg 84%
    15:00 -6°C° 0,4 mm 3 m/S 472 mmHg 84%
    16:00 -5°C° 0,4 mm 2 m/S 471 mmHg 85%
    17:00 -5°C° 0,4 mm 2 m/S 471 mmHg 86%
    18:00 -4°C° 0,2 mm 1 m/S 471 mmHg 87%
    19:00 -6°C° 0,2 mm 1 m/S 470 mmHg 88%
    20:00 -7°C° 0,2 mm 1 m/S 470 mmHg 89%
    21:00 -7°C° 0,1 mm 1 m/S 470 mmHg 88%
    22:00 -8°C° 0,1 mm 1 m/S 469 mmHg 87%
    23:00 -8°C° 0,1 mm 1 m/S 469 mmHg 86%
    Mehr zeigen